Year,Month,Day,Hour,Minute,Value (Times are PST for temperature in C)
2020,05,05,00,00,8.40
2020,05,05,00,01,8.40
2020,05,05,00,02,8.50
2020,05,05,00,03,8.50
2020,05,05,00,04,8.50
2020,05,05,00,05,8.50
2020,05,05,00,06,8.50
2020,05,05,00,07,8.50
2020,05,05,00,08,8.60
2020,05,05,00,09,8.60
2020,05,05,00,10,8.60
2020,05,05,00,11,8.60
2020,05,05,00,12,8.60
2020,05,05,00,13,8.60
2020,05,05,00,14,8.60
2020,05,05,00,15,8.60
2020,05,05,00,16,8.60
2020,05,05,00,17,8.60
2020,05,05,00,18,8.60
2020,05,05,00,19,8.70
2020,05,05,00,20,8.70
2020,05,05,00,21,8.80
2020,05,05,00,22,8.90
2020,05,05,00,23,9.00
2020,05,05,00,24,9.10
2020,05,05,00,25,9.20
2020,05,05,00,26,9.30
2020,05,05,00,27,9.30
2020,05,05,00,28,9.40
2020,05,05,00,29,9.50
2020,05,05,00,30,9.60
2020,05,05,00,31,9.70
2020,05,05,00,32,9.70
2020,05,05,00,33,9.80
2020,05,05,00,34,9.80
2020,05,05,00,35,9.90
2020,05,05,00,36,10.00
2020,05,05,00,37,10.00
2020,05,05,00,38,10.10
2020,05,05,00,39,10.10
2020,05,05,00,40,10.10
2020,05,05,00,41,10.10
2020,05,05,00,42,10.10
2020,05,05,00,43,10.10
2020,05,05,00,44,10.10
2020,05,05,00,45,10.10
2020,05,05,00,46,10.10
2020,05,05,00,47,10.10
2020,05,05,00,48,10.10
2020,05,05,00,49,10.10
2020,05,05,00,50,10.10
2020,05,05,00,51,10.10
2020,05,05,00,52,10.10
2020,05,05,00,53,10.10
2020,05,05,00,54,10.10
2020,05,05,00,55,10.10
2020,05,05,00,56,10.10
2020,05,05,00,57,10.10
2020,05,05,00,58,10.00
2020,05,05,00,59,10.00
2020,05,05,01,00,9.90
2020,05,05,01,01,9.80
2020,05,05,01,02,9.80
2020,05,05,01,03,9.70
2020,05,05,01,04,9.70
2020,05,05,01,05,9.60
2020,05,05,01,06,9.50
2020,05,05,01,07,9.40
2020,05,05,01,08,9.30
2020,05,05,01,09,9.30
2020,05,05,01,10,9.20
2020,05,05,01,11,9.10
2020,05,05,01,12,9.00
2020,05,05,01,13,9.00
2020,05,05,01,14,8.90
2020,05,05,01,15,8.90
2020,05,05,01,16,8.80
2020,05,05,01,17,8.80
2020,05,05,01,18,8.70
2020,05,05,01,19,8.60
2020,05,05,01,20,8.60
2020,05,05,01,21,8.60
2020,05,05,01,22,8.50
2020,05,05,01,23,8.50
2020,05,05,01,24,8.40
2020,05,05,01,25,8.30
2020,05,05,01,26,8.30
2020,05,05,01,27,8.20
2020,05,05,01,28,8.20
2020,05,05,01,29,8.20
2020,05,05,01,30,8.10
2020,05,05,01,31,8.00
2020,05,05,01,32,7.90
2020,05,05,01,33,7.90
2020,05,05,01,34,7.80
2020,05,05,01,35,7.70
2020,05,05,01,36,7.60
2020,05,05,01,37,7.50
2020,05,05,01,38,7.40
2020,05,05,01,39,7.30
2020,05,05,01,40,7.20
2020,05,05,01,41,7.10
2020,05,05,01,42,7.10
2020,05,05,01,43,7.00
2020,05,05,01,44,6.90
2020,05,05,01,45,6.90
2020,05,05,01,46,6.80
2020,05,05,01,47,6.80
2020,05,05,01,48,6.70
2020,05,05,01,49,6.70
2020,05,05,01,50,6.60
2020,05,05,01,51,6.60
2020,05,05,01,52,6.50
2020,05,05,01,53,6.40
2020,05,05,01,54,6.40
2020,05,05,01,55,6.30
2020,05,05,01,56,6.30
2020,05,05,01,57,6.30
2020,05,05,01,58,6.20
2020,05,05,01,59,6.20
2020,05,05,02,00,6.20
2020,05,05,02,01,6.10
2020,05,05,02,02,6.10
2020,05,05,02,03,6.10
2020,05,05,02,04,6.00
2020,05,05,02,05,6.00
2020,05,05,02,06,5.90
2020,05,05,02,07,5.90
2020,05,05,02,08,5.80
2020,05,05,02,09,5.80
2020,05,05,02,10,5.80
2020,05,05,02,11,5.80
2020,05,05,02,12,5.80
2020,05,05,02,13,5.80
2020,05,05,02,14,5.80
2020,05,05,02,15,5.70
2020,05,05,02,16,5.70
2020,05,05,02,17,5.70
2020,05,05,02,18,5.70
2020,05,05,02,19,5.70
2020,05,05,02,20,5.70
2020,05,05,02,21,5.60
2020,05,05,02,22,5.60
2020,05,05,02,23,5.60
2020,05,05,02,24,5.60
2020,05,05,02,25,5.60
2020,05,05,02,26,5.60
2020,05,05,02,27,5.60
2020,05,05,02,28,5.60
2020,05,05,02,29,5.60
2020,05,05,02,30,5.60
2020,05,05,02,31,5.60
2020,05,05,02,32,5.60
2020,05,05,02,33,5.60
2020,05,05,02,34,5.60
2020,05,05,02,35,5.60
2020,05,05,02,36,5.60
2020,05,05,02,37,5.50
2020,05,05,02,38,5.50
2020,05,05,02,39,5.50
2020,05,05,02,40,5.50
2020,05,05,02,41,5.50
2020,05,05,02,42,5.50
2020,05,05,02,43,5.50
2020,05,05,02,44,5.50
2020,05,05,02,45,5.40
2020,05,05,02,46,5.40
2020,05,05,02,47,5.40
2020,05,05,02,48,5.40
2020,05,05,02,49,5.40
2020,05,05,02,50,5.40
2020,05,05,02,51,5.30
2020,05,05,02,52,5.30
2020,05,05,02,53,5.30
2020,05,05,02,54,5.30
2020,05,05,02,55,5.30
2020,05,05,02,56,5.30
2020,05,05,02,57,5.30
2020,05,05,02,58,5.30
2020,05,05,02,59,5.20
2020,05,05,03,00,5.20
2020,05,05,03,01,5.20
2020,05,05,03,02,5.20
2020,05,05,03,03,5.20
2020,05,05,03,04,5.20
2020,05,05,03,05,5.20
2020,05,05,03,06,5.20
2020,05,05,03,07,5.20
2020,05,05,03,08,5.10
2020,05,05,03,09,5.10
2020,05,05,03,10,5.10
2020,05,05,03,11,5.10
2020,05,05,03,12,5.10
2020,05,05,03,13,5.10
2020,05,05,03,14,5.10
2020,05,05,03,15,5.00
2020,05,05,03,16,5.00
2020,05,05,03,17,4.90
2020,05,05,03,18,4.90
2020,05,05,03,19,4.90
2020,05,05,03,20,4.80
2020,05,05,03,21,4.80
2020,05,05,03,22,4.80
2020,05,05,03,23,4.80
2020,05,05,03,24,4.80
2020,05,05,03,25,4.70
2020,05,05,03,26,4.70
2020,05,05,03,27,4.70
2020,05,05,03,28,4.70
2020,05,05,03,29,4.70
2020,05,05,03,30,4.70
2020,05,05,03,31,4.70
2020,05,05,03,32,4.70
2020,05,05,03,33,4.70
2020,05,05,03,34,4.60
2020,05,05,03,35,4.60
2020,05,05,03,36,4.60
2020,05,05,03,37,4.60
2020,05,05,03,38,4.60
2020,05,05,03,39,4.50
2020,05,05,03,40,4.50
2020,05,05,03,41,4.50
2020,05,05,03,42,4.50
2020,05,05,03,43,4.40
2020,05,05,03,44,4.40
2020,05,05,03,45,4.40
2020,05,05,03,46,4.40
2020,05,05,03,47,4.30
2020,05,05,03,48,4.30
2020,05,05,03,49,4.30
2020,05,05,03,50,4.30
2020,05,05,03,51,4.30
2020,05,05,03,52,4.20
2020,05,05,03,53,4.20
2020,05,05,03,54,4.20
2020,05,05,03,55,4.20
2020,05,05,03,56,4.20
2020,05,05,03,57,4.10
2020,05,05,03,58,4.10
2020,05,05,03,59,4.10
2020,05,05,04,00,4.10
2020,05,05,04,01,4.10
2020,05,05,04,02,4.10
2020,05,05,04,03,4.10
2020,05,05,04,04,4.10
2020,05,05,04,05,4.00
2020,05,05,04,06,4.00
2020,05,05,04,07,4.00
2020,05,05,04,08,3.90
2020,05,05,04,09,3.90
2020,05,05,04,10,3.90
2020,05,05,04,11,3.90
2020,05,05,04,12,3.90
2020,05,05,04,13,3.90
2020,05,05,04,14,3.90
2020,05,05,04,15,4.00
2020,05,05,04,16,4.00
2020,05,05,04,17,4.00
2020,05,05,04,18,3.90
2020,05,05,04,19,3.90
2020,05,05,04,20,3.90
2020,05,05,04,21,3.90
2020,05,05,04,22,3.90
2020,05,05,04,23,3.80
2020,05,05,04,24,3.80
2020,05,05,04,25,3.80
2020,05,05,04,26,3.80
2020,05,05,04,27,3.80
2020,05,05,04,28,3.90
2020,05,05,04,29,3.90
2020,05,05,04,30,3.90
2020,05,05,04,31,3.90
2020,05,05,04,32,3.90
2020,05,05,04,33,3.90
2020,05,05,04,34,4.00
2020,05,05,04,35,4.00
2020,05,05,04,36,4.00
2020,05,05,04,37,4.00
2020,05,05,04,38,4.10
2020,05,05,04,39,4.10
2020,05,05,04,40,4.20
2020,05,05,04,41,4.20
2020,05,05,04,42,4.20
2020,05,05,04,43,4.20
2020,05,05,04,44,4.20
2020,05,05,04,45,4.20
2020,05,05,04,46,4.20
2020,05,05,04,47,4.20
2020,05,05,04,48,4.20
2020,05,05,04,49,4.20
2020,05,05,04,50,4.20
2020,05,05,04,51,4.20
2020,05,05,04,52,4.20
2020,05,05,04,53,4.10
2020,05,05,04,54,4.10
2020,05,05,04,55,4.00
2020,05,05,04,56,4.00
2020,05,05,04,57,3.90
2020,05,05,04,58,3.90
2020,05,05,04,59,3.90
2020,05,05,05,00,3.90
2020,05,05,05,01,3.80
2020,05,05,05,02,3.80
2020,05,05,05,03,3.80
2020,05,05,05,04,3.70
2020,05,05,05,05,3.70
2020,05,05,05,06,3.70
2020,05,05,05,07,3.70
2020,05,05,05,08,3.70
2020,05,05,05,09,3.60
2020,05,05,05,10,3.60
2020,05,05,05,11,3.60
2020,05,05,05,12,3.60
2020,05,05,05,13,3.60
2020,05,05,05,14,3.60
2020,05,05,05,15,3.60
2020,05,05,05,16,3.60
2020,05,05,05,17,3.60
2020,05,05,05,18,3.60
2020,05,05,05,19,3.60
2020,05,05,05,20,3.50
2020,05,05,05,21,3.50
2020,05,05,05,22,3.50
2020,05,05,05,23,3.40
2020,05,05,05,24,3.40
2020,05,05,05,25,3.40
2020,05,05,05,26,3.40
2020,05,05,05,27,3.40
2020,05,05,05,28,3.40
2020,05,05,05,29,3.40
2020,05,05,05,30,3.40
2020,05,05,05,31,3.40
2020,05,05,05,32,3.40
2020,05,05,05,33,3.30
2020,05,05,05,34,3.30
2020,05,05,05,35,3.30
2020,05,05,05,36,3.30
2020,05,05,05,37,3.30
2020,05,05,05,38,3.30
2020,05,05,05,39,3.30
2020,05,05,05,40,3.30
2020,05,05,05,41,3.30
2020,05,05,05,42,3.30
2020,05,05,05,43,3.30
2020,05,05,05,44,3.40
2020,05,05,05,45,3.40
2020,05,05,05,46,3.40
2020,05,05,05,47,3.40
2020,05,05,05,48,3.40
2020,05,05,05,49,3.50
2020,05,05,05,50,3.50
2020,05,05,05,51,3.50
2020,05,05,05,52,3.60
2020,05,05,05,53,3.60
2020,05,05,05,54,3.60
2020,05,05,05,55,3.60
2020,05,05,05,56,3.70
2020,05,05,05,57,3.80
2020,05,05,05,58,3.70
2020,05,05,05,59,3.70
2020,05,05,06,00,3.60
2020,05,05,06,01,3.60
2020,05,05,06,02,3.70
2020,05,05,06,03,3.70
2020,05,05,06,04,3.70
2020,05,05,06,05,3.70
2020,05,05,06,06,3.70
2020,05,05,06,07,3.70
2020,05,05,06,08,3.70
2020,05,05,06,09,3.70
2020,05,05,06,10,3.70
2020,05,05,06,11,3.80
2020,05,05,06,12,3.80
2020,05,05,06,13,3.80
2020,05,05,06,14,3.80
2020,05,05,06,15,3.80
2020,05,05,06,16,3.90
2020,05,05,06,17,3.90
2020,05,05,06,18,3.90
2020,05,05,06,19,3.90
2020,05,05,06,20,3.90
2020,05,05,06,21,3.90
2020,05,05,06,22,3.90
2020,05,05,06,23,3.90
2020,05,05,06,24,4.00
2020,05,05,06,25,4.10
2020,05,05,06,26,4.20
2020,05,05,06,27,4.30
2020,05,05,06,28,4.30
2020,05,05,06,29,4.30
2020,05,05,06,30,4.30
2020,05,05,06,31,4.30
2020,05,05,06,32,4.30
2020,05,05,06,33,4.20
2020,05,05,06,34,4.20
2020,05,05,06,35,4.20
2020,05,05,06,36,4.30
2020,05,05,06,37,4.30
2020,05,05,06,38,4.30
2020,05,05,06,39,4.30
2020,05,05,06,40,4.40
2020,05,05,06,41,4.40
2020,05,05,06,42,4.40
2020,05,05,06,43,4.40
2020,05,05,06,44,4.40
2020,05,05,06,45,4.50
2020,05,05,06,46,4.50
2020,05,05,06,47,4.50
2020,05,05,06,48,4.60
2020,05,05,06,49,4.60
2020,05,05,06,50,4.70
2020,05,05,06,51,4.80
2020,05,05,06,52,4.80
2020,05,05,06,53,4.80
2020,05,05,06,54,4.90
2020,05,05,06,55,5.00
2020,05,05,06,56,5.00
2020,05,05,06,57,5.10
2020,05,05,06,58,5.10
2020,05,05,06,59,5.20
2020,05,05,07,00,5.20
2020,05,05,07,01,5.20
2020,05,05,07,02,5.20
2020,05,05,07,03,5.20
2020,05,05,07,04,5.20
2020,05,05,07,05,5.30
2020,05,05,07,06,5.30
2020,05,05,07,07,5.30
2020,05,05,07,08,5.30
2020,05,05,07,09,5.40
2020,05,05,07,10,5.50
2020,05,05,07,11,5.50
2020,05,05,07,12,5.60
2020,05,05,07,13,5.70
2020,05,05,07,14,5.70
2020,05,05,07,15,5.80
2020,05,05,07,16,5.80
2020,05,05,07,17,5.80
2020,05,05,07,18,5.90
2020,05,05,07,19,5.90
2020,05,05,07,20,6.00
2020,05,05,07,21,6.00
2020,05,05,07,22,6.10
2020,05,05,07,23,6.10
2020,05,05,07,24,6.20
2020,05,05,07,25,6.20
2020,05,05,07,26,6.20
2020,05,05,07,27,6.20
2020,05,05,07,28,6.30
2020,05,05,07,29,6.30
2020,05,05,07,30,6.30
2020,05,05,07,31,6.40
2020,05,05,07,32,6.40
2020,05,05,07,33,6.50
2020,05,05,07,34,6.60
2020,05,05,07,35,6.60
2020,05,05,07,36,6.70
2020,05,05,07,37,6.70
2020,05,05,07,38,6.80
2020,05,05,07,39,6.80
2020,05,05,07,40,6.90
2020,05,05,07,41,6.90
2020,05,05,07,42,7.00
2020,05,05,07,43,7.00
2020,05,05,07,44,7.10
2020,05,05,07,45,7.20
2020,05,05,07,46,7.20
2020,05,05,07,47,7.30
2020,05,05,07,48,7.30
2020,05,05,07,49,7.50
2020,05,05,07,50,7.50
2020,05,05,07,51,7.60
2020,05,05,07,52,7.70
2020,05,05,07,53,7.80
2020,05,05,07,54,7.90
2020,05,05,07,55,8.00
2020,05,05,07,56,8.10
2020,05,05,07,57,8.20
2020,05,05,07,58,8.30
2020,05,05,07,59,8.40
2020,05,05,08,00,8.50
2020,05,05,08,01,8.50
2020,05,05,08,02,8.50
2020,05,05,08,03,8.60
2020,05,05,08,04,8.70
2020,05,05,08,05,8.70
2020,05,05,08,06,8.80
2020,05,05,08,07,8.80
2020,05,05,08,08,8.90
2020,05,05,08,09,9.10
2020,05,05,08,10,9.20
2020,05,05,08,11,9.40
2020,05,05,08,12,9.50
2020,05,05,08,13,9.50
2020,05,05,08,14,9.50
2020,05,05,08,15,9.40
2020,05,05,08,16,9.40
2020,05,05,08,17,9.40
2020,05,05,08,18,9.40
2020,05,05,08,19,9.40
2020,05,05,08,20,9.40
2020,05,05,08,21,9.40
2020,05,05,08,22,9.40
2020,05,05,08,23,9.40
2020,05,05,08,24,9.50
2020,05,05,08,25,9.50
2020,05,05,08,26,9.50
2020,05,05,08,27,9.50
2020,05,05,08,28,9.60
2020,05,05,08,29,9.60
2020,05,05,08,30,9.60
2020,05,05,08,31,9.70
2020,05,05,08,32,9.70
2020,05,05,08,33,9.80
2020,05,05,08,34,9.70
2020,05,05,08,35,9.70
2020,05,05,08,36,9.80
2020,05,05,08,37,9.80
2020,05,05,08,38,9.90
2020,05,05,08,39,9.90
2020,05,05,08,40,9.90
2020,05,05,08,41,9.90
2020,05,05,08,42,9.90
2020,05,05,08,43,9.90
2020,05,05,08,44,10.00
2020,05,05,08,45,10.00
2020,05,05,08,46,10.00
2020,05,05,08,47,10.00
2020,05,05,08,48,10.00
2020,05,05,08,49,10.00
2020,05,05,08,50,10.00
2020,05,05,08,51,10.00
2020,05,05,08,52,10.10
2020,05,05,08,53,10.20
2020,05,05,08,54,10.30
2020,05,05,08,55,10.40
2020,05,05,08,56,10.40
2020,05,05,08,57,10.50
2020,05,05,08,58,10.50
2020,05,05,08,59,10.60
2020,05,05,09,00,10.60
2020,05,05,09,01,10.60
2020,05,05,09,02,10.70
2020,05,05,09,03,10.80
2020,05,05,09,04,10.80
2020,05,05,09,05,10.80
2020,05,05,09,06,10.80
2020,05,05,09,07,10.80
2020,05,05,09,08,10.90
2020,05,05,09,09,10.90
2020,05,05,09,10,10.90
2020,05,05,09,11,10.90
2020,05,05,09,12,10.90
2020,05,05,09,13,10.90
2020,05,05,09,14,10.80
2020,05,05,09,15,10.70
2020,05,05,09,16,10.60
2020,05,05,09,17,10.60
2020,05,05,09,18,10.60
2020,05,05,09,19,10.70
2020,05,05,09,20,10.80
2020,05,05,09,21,10.80
2020,05,05,09,22,10.80
2020,05,05,09,23,10.90
2020,05,05,09,24,10.90
2020,05,05,09,25,11.00
2020,05,05,09,26,11.10
2020,05,05,09,27,11.10
2020,05,05,09,28,11.20
2020,05,05,09,29,11.20
2020,05,05,09,30,11.30
2020,05,05,09,31,11.30
2020,05,05,09,32,11.20
2020,05,05,09,33,11.20
2020,05,05,09,34,11.20
2020,05,05,09,35,11.20
2020,05,05,09,36,11.20
2020,05,05,09,37,11.10
2020,05,05,09,38,11.10
2020,05,05,09,39,11.10
2020,05,05,09,40,11.20
2020,05,05,09,41,11.20
2020,05,05,09,42,11.10
2020,05,05,09,43,11.10
2020,05,05,09,44,11.10
2020,05,05,09,45,11.10
2020,05,05,09,46,11.20
2020,05,05,09,47,11.30
2020,05,05,09,48,11.40
2020,05,05,09,49,11.40
2020,05,05,09,50,11.40
2020,05,05,09,51,11.40
2020,05,05,09,52,11.50
2020,05,05,09,53,11.60
2020,05,05,09,54,11.60
2020,05,05,09,55,11.70
2020,05,05,09,56,11.60
2020,05,05,09,57,11.50
2020,05,05,09,58,11.50
2020,05,05,09,59,11.40
2020,05,05,10,00,11.30
2020,05,05,10,01,11.30
2020,05,05,10,02,11.30
2020,05,05,10,03,11.30
2020,05,05,10,04,11.30
2020,05,05,10,05,11.30
2020,05,05,10,06,11.40
2020,05,05,10,07,11.40
2020,05,05,10,08,11.40
2020,05,05,10,09,11.40
2020,05,05,10,10,11.40
2020,05,05,10,11,11.40
2020,05,05,10,12,11.40
2020,05,05,10,13,11.40
2020,05,05,10,14,11.40
2020,05,05,10,15,11.50
2020,05,05,10,16,11.50
2020,05,05,10,17,11.40
2020,05,05,10,18,11.30
2020,05,05,10,19,11.30
2020,05,05,10,20,11.30
2020,05,05,10,21,11.30
2020,05,05,10,22,11.30
2020,05,05,10,23,11.30
2020,05,05,10,24,11.30
2020,05,05,10,25,11.40
2020,05,05,10,26,11.50
2020,05,05,10,27,11.60
2020,05,05,10,28,11.80
2020,05,05,10,29,11.90
2020,05,05,10,30,12.00
2020,05,05,10,31,12.00
2020,05,05,10,32,12.10
2020,05,05,10,33,12.00
2020,05,05,10,34,11.90
2020,05,05,10,35,11.90
2020,05,05,10,36,12.00
2020,05,05,10,37,12.00
2020,05,05,10,38,12.10
2020,05,05,10,39,12.20
2020,05,05,10,40,12.30
2020,05,05,10,41,12.30
2020,05,05,10,42,12.20
2020,05,05,10,43,12.10
2020,05,05,10,44,12.10
2020,05,05,10,45,12.10
2020,05,05,10,46,12.10
2020,05,05,10,47,12.10
2020,05,05,10,48,12.20
2020,05,05,10,49,12.20
2020,05,05,10,50,12.20
2020,05,05,10,51,12.30
2020,05,05,10,52,12.30
2020,05,05,10,53,12.40
2020,05,05,10,54,12.50
2020,05,05,10,55,12.50
2020,05,05,10,56,12.50
2020,05,05,10,57,12.50
2020,05,05,10,58,12.50
2020,05,05,10,59,12.60
2020,05,05,11,00,12.60
2020,05,05,11,01,12.70
2020,05,05,11,02,12.80
2020,05,05,11,03,12.90
2020,05,05,11,04,12.90
2020,05,05,11,05,12.90
2020,05,05,11,06,12.90
2020,05,05,11,07,12.90
2020,05,05,11,08,12.90
2020,05,05,11,09,12.90
2020,05,05,11,10,12.90
2020,05,05,11,11,13.00
2020,05,05,11,12,13.10
2020,05,05,11,13,13.10
2020,05,05,11,14,13.10
2020,05,05,11,15,13.20
2020,05,05,11,16,13.20
2020,05,05,11,17,13.20
2020,05,05,11,18,13.10
2020,05,05,11,19,12.90
2020,05,05,11,20,12.80
2020,05,05,11,21,12.80
2020,05,05,11,22,12.70
2020,05,05,11,23,12.70
2020,05,05,11,24,12.60
2020,05,05,11,25,12.60
2020,05,05,11,26,12.50
2020,05,05,11,27,12.50
2020,05,05,11,28,12.50
2020,05,05,11,29,12.60
2020,05,05,11,30,12.60
2020,05,05,11,31,12.50
2020,05,05,11,32,12.40
2020,05,05,11,33,12.30
2020,05,05,11,34,12.30
2020,05,05,11,35,12.30
2020,05,05,11,36,12.30
2020,05,05,11,37,12.30
2020,05,05,11,38,12.30
2020,05,05,11,39,12.30
2020,05,05,11,40,12.30
2020,05,05,11,41,12.30
2020,05,05,11,42,12.30
2020,05,05,11,43,12.30
2020,05,05,11,44,12.40
2020,05,05,11,45,12.40
2020,05,05,11,46,12.40
2020,05,05,11,47,12.40
2020,05,05,11,48,12.40
2020,05,05,11,49,12.50
2020,05,05,11,50,12.50
2020,05,05,11,51,12.60
2020,05,05,11,52,12.60
2020,05,05,11,53,12.60
2020,05,05,11,54,12.70
2020,05,05,11,55,12.70
2020,05,05,11,56,12.60
2020,05,05,11,57,12.60
2020,05,05,11,58,12.70
2020,05,05,11,59,12.70
2020,05,05,12,00,12.70
2020,05,05,12,01,12.80
2020,05,05,12,02,12.80
2020,05,05,12,03,12.90
2020,05,05,12,04,12.90
2020,05,05,12,05,12.90
2020,05,05,12,06,12.90
2020,05,05,12,07,12.80
2020,05,05,12,08,12.80
2020,05,05,12,09,12.80
2020,05,05,12,10,12.80
2020,05,05,12,11,12.90
2020,05,05,12,12,13.00
2020,05,05,12,13,13.00
2020,05,05,12,14,13.10
2020,05,05,12,15,13.10
2020,05,05,12,16,13.10
2020,05,05,12,17,13.10
2020,05,05,12,18,13.20
2020,05,05,12,19,13.20
2020,05,05,12,20,13.20
2020,05,05,12,21,13.20
2020,05,05,12,22,13.30
2020,05,05,12,23,13.40
2020,05,05,12,24,13.40
2020,05,05,12,25,13.50
2020,05,05,12,26,13.50
2020,05,05,12,27,13.50
2020,05,05,12,28,13.40
2020,05,05,12,29,13.50
2020,05,05,12,30,13.50
2020,05,05,12,31,13.50
2020,05,05,12,32,13.60
2020,05,05,12,33,13.60
2020,05,05,12,34,13.50
2020,05,05,12,35,13.50
2020,05,05,12,36,13.40
2020,05,05,12,37,13.50
2020,05,05,12,38,13.50
2020,05,05,12,39,13.50
2020,05,05,12,40,13.60
2020,05,05,12,41,13.70
2020,05,05,12,42,13.80
2020,05,05,12,43,13.80
2020,05,05,12,44,13.70
2020,05,05,12,45,13.60
2020,05,05,12,46,13.50
2020,05,05,12,47,13.50
2020,05,05,12,48,13.60
2020,05,05,12,49,13.60
2020,05,05,12,50,13.70
2020,05,05,12,51,13.80
2020,05,05,12,52,13.80
2020,05,05,12,53,13.90
2020,05,05,12,54,14.00
2020,05,05,12,55,14.00
2020,05,05,12,56,14.10
2020,05,05,12,57,14.10
2020,05,05,12,58,14.20
2020,05,05,12,59,14.20
2020,05,05,13,00,14.20
2020,05,05,13,01,14.20
2020,05,05,13,02,14.20
2020,05,05,13,03,14.20
2020,05,05,13,04,14.30
2020,05,05,13,05,14.30
2020,05,05,13,06,14.40
2020,05,05,13,07,14.50
2020,05,05,13,08,14.50
2020,05,05,13,09,14.60
2020,05,05,13,10,14.60
2020,05,05,13,11,14.50
2020,05,05,13,12,14.40
2020,05,05,13,13,14.40
2020,05,05,13,14,14.50
2020,05,05,13,15,14.60
2020,05,05,13,16,14.70
2020,05,05,13,17,14.80
2020,05,05,13,18,14.80
2020,05,05,13,19,14.90
2020,05,05,13,20,14.90
2020,05,05,13,21,14.90
2020,05,05,13,22,14.90
2020,05,05,13,23,15.00
2020,05,05,13,24,15.00
2020,05,05,13,25,15.10
2020,05,05,13,26,15.20
2020,05,05,13,27,15.20
2020,05,05,13,28,15.10
2020,05,05,13,29,15.00
2020,05,05,13,30,14.90
2020,05,05,13,31,14.90
2020,05,05,13,32,14.80
2020,05,05,13,33,14.70
2020,05,05,13,34,14.60
2020,05,05,13,35,14.50
2020,05,05,13,36,14.30
2020,05,05,13,37,14.20
2020,05,05,13,38,14.20
2020,05,05,13,39,14.20
2020,05,05,13,40,14.20
2020,05,05,13,41,14.30
2020,05,05,13,42,14.30
2020,05,05,13,43,14.30
2020,05,05,13,44,14.30
2020,05,05,13,45,14.40
2020,05,05,13,46,14.50
2020,05,05,13,47,14.50
2020,05,05,13,48,14.40
2020,05,05,13,49,14.30
2020,05,05,13,50,14.20
2020,05,05,13,51,14.10
2020,05,05,13,52,14.10
2020,05,05,13,53,13.90
2020,05,05,13,54,13.80
2020,05,05,13,55,13.90
2020,05,05,13,56,13.90
2020,05,05,13,57,14.00
2020,05,05,13,58,14.00
2020,05,05,13,59,14.00
2020,05,05,14,00,13.90
2020,05,05,14,01,13.90
2020,05,05,14,02,13.80
2020,05,05,14,03,13.80
2020,05,05,14,04,13.80
2020,05,05,14,05,13.80
2020,05,05,14,06,13.80
2020,05,05,14,07,13.80
2020,05,05,14,08,13.90
2020,05,05,14,09,14.00
2020,05,05,14,10,14.00
2020,05,05,14,11,13.90
2020,05,05,14,12,13.90
2020,05,05,14,13,13.80
2020,05,05,14,14,13.80
2020,05,05,14,15,13.80
2020,05,05,14,16,13.80
2020,05,05,14,17,13.90
2020,05,05,14,18,13.90
2020,05,05,14,19,14.10
2020,05,05,14,20,14.20
2020,05,05,14,21,14.30
2020,05,05,14,22,14.40
2020,05,05,14,23,14.50
2020,05,05,14,24,14.60
2020,05,05,14,25,14.60
2020,05,05,14,26,14.60
2020,05,05,14,27,14.70
2020,05,05,14,28,14.70
2020,05,05,14,29,14.70
2020,05,05,14,30,14.80
2020,05,05,14,31,15.00
2020,05,05,14,32,15.10
2020,05,05,14,33,15.20
2020,05,05,14,34,15.30
2020,05,05,14,35,15.30
2020,05,05,14,36,15.30
2020,05,05,14,37,15.30
2020,05,05,14,38,15.40
2020,05,05,14,39,15.40
2020,05,05,14,40,15.50
2020,05,05,14,41,15.50
2020,05,05,14,42,15.50
2020,05,05,14,43,15.50
2020,05,05,14,44,15.60
2020,05,05,14,45,15.70
2020,05,05,14,46,15.60
2020,05,05,14,47,15.60
2020,05,05,14,48,15.60
2020,05,05,14,49,15.50
2020,05,05,14,50,15.50
2020,05,05,14,51,15.50
2020,05,05,14,52,15.60
2020,05,05,14,53,15.70
2020,05,05,14,54,15.70
2020,05,05,14,55,15.60
2020,05,05,14,56,15.60
2020,05,05,14,57,15.60
2020,05,05,14,58,15.70
2020,05,05,14,59,15.70
2020,05,05,15,00,15.70
2020,05,05,15,01,15.70
2020,05,05,15,02,15.70
2020,05,05,15,03,15.70
2020,05,05,15,04,15.70
2020,05,05,15,05,15.70
2020,05,05,15,06,15.70
2020,05,05,15,07,15.70
2020,05,05,15,08,15.70
2020,05,05,15,09,15.70
2020,05,05,15,10,15.70
2020,05,05,15,11,15.60
2020,05,05,15,12,15.50
2020,05,05,15,13,15.40
2020,05,05,15,14,15.30
2020,05,05,15,15,15.30
2020,05,05,15,16,15.30
2020,05,05,15,17,15.30
2020,05,05,15,18,15.30
2020,05,05,15,19,15.30
2020,05,05,15,20,15.30
2020,05,05,15,21,15.40
2020,05,05,15,22,15.50
2020,05,05,15,23,15.60
2020,05,05,15,24,15.50
2020,05,05,15,25,15.50
2020,05,05,15,26,15.40
2020,05,05,15,27,15.30
2020,05,05,15,28,15.20
2020,05,05,15,29,15.00
2020,05,05,15,30,14.90
2020,05,05,15,31,14.80
2020,05,05,15,32,14.80
2020,05,05,15,33,14.90
2020,05,05,15,34,15.00
2020,05,05,15,35,15.00
2020,05,05,15,36,15.00
2020,05,05,15,37,15.00
2020,05,05,15,38,15.10
2020,05,05,15,39,15.10
2020,05,05,15,40,15.10
2020,05,05,15,41,15.00
2020,05,05,15,42,15.00
2020,05,05,15,43,15.00
2020,05,05,15,44,15.00
2020,05,05,15,45,15.00
2020,05,05,15,46,15.00
2020,05,05,15,47,15.00
2020,05,05,15,48,15.10
2020,05,05,15,49,15.10
2020,05,05,15,50,15.10
2020,05,05,15,51,15.20
2020,05,05,15,52,15.10
2020,05,05,15,53,15.10
2020,05,05,15,54,15.10
2020,05,05,15,55,15.20
2020,05,05,15,56,15.20
2020,05,05,15,57,15.40
2020,05,05,15,58,15.50
2020,05,05,15,59,15.50
2020,05,05,16,00,15.60
2020,05,05,16,01,15.60
2020,05,05,16,02,15.60
2020,05,05,16,03,15.60
2020,05,05,16,04,15.50
2020,05,05,16,05,15.60
2020,05,05,16,06,15.60
2020,05,05,16,07,15.60
2020,05,05,16,08,15.60
2020,05,05,16,09,15.60
2020,05,05,16,10,15.60
2020,05,05,16,11,15.50
2020,05,05,16,12,15.50
2020,05,05,16,13,15.40
2020,05,05,16,14,15.50
2020,05,05,16,15,15.50
2020,05,05,16,16,15.50
2020,05,05,16,17,15.40
2020,05,05,16,18,15.30
2020,05,05,16,19,15.30
2020,05,05,16,20,15.30
2020,05,05,16,21,15.30
2020,05,05,16,22,15.40
2020,05,05,16,23,15.50
2020,05,05,16,24,15.50
2020,05,05,16,25,15.50
2020,05,05,16,26,15.60
2020,05,05,16,27,15.70
2020,05,05,16,28,15.70
2020,05,05,16,29,15.70
2020,05,05,16,30,15.70
2020,05,05,16,31,15.70
2020,05,05,16,32,15.70
2020,05,05,16,33,15.70
2020,05,05,16,34,15.70
2020,05,05,16,35,15.70
2020,05,05,16,36,15.70
2020,05,05,16,37,15.80
2020,05,05,16,38,15.80
2020,05,05,16,39,15.80
2020,05,05,16,40,15.70
2020,05,05,16,41,15.70
2020,05,05,16,42,15.70
2020,05,05,16,43,15.70
2020,05,05,16,44,15.70
2020,05,05,16,45,15.70
2020,05,05,16,46,15.80
2020,05,05,16,47,15.80
2020,05,05,16,48,15.90
2020,05,05,16,49,15.90
2020,05,05,16,50,15.90
2020,05,05,16,51,16.00
2020,05,05,16,52,16.10
2020,05,05,16,53,16.10
2020,05,05,16,54,16.10
2020,05,05,16,55,16.10
2020,05,05,16,56,16.20
2020,05,05,16,57,16.20
2020,05,05,16,58,16.20
2020,05,05,16,59,16.20
2020,05,05,17,00,16.20
2020,05,05,17,01,16.10
2020,05,05,17,02,16.10
2020,05,05,17,03,16.10
2020,05,05,17,04,16.10
2020,05,05,17,05,16.10
2020,05,05,17,06,16.10
2020,05,05,17,07,16.10
2020,05,05,17,08,16.20
2020,05,05,17,09,16.20
2020,05,05,17,10,16.20
2020,05,05,17,11,16.30
2020,05,05,17,12,16.30
2020,05,05,17,13,16.30
2020,05,05,17,14,16.30
2020,05,05,17,15,16.30
2020,05,05,17,16,16.40
2020,05,05,17,17,16.50
2020,05,05,17,18,16.60
2020,05,05,17,19,16.60
2020,05,05,17,20,16.60
2020,05,05,17,21,16.60
2020,05,05,17,22,16.60
2020,05,05,17,23,16.60
2020,05,05,17,24,16.50
2020,05,05,17,25,16.50
2020,05,05,17,26,16.50
2020,05,05,17,27,16.50
2020,05,05,17,28,16.50
2020,05,05,17,29,16.60
2020,05,05,17,30,16.60
2020,05,05,17,31,16.60
2020,05,05,17,32,16.60
2020,05,05,17,33,16.60
2020,05,05,17,34,16.50
2020,05,05,17,35,16.50
2020,05,05,17,36,16.50
2020,05,05,17,37,16.50
2020,05,05,17,38,16.50
2020,05,05,17,39,16.60
2020,05,05,17,40,16.60
2020,05,05,17,41,16.60